Location: Gradaro
(45.0833°N, 10.8833°E)
Time: 00:50:39
(UTC+00:00)

Cosmos 2263 Rocket - Pass Details

Date: 29 April 2021
Orbit: 824 x 848 km, 71.0° (Epoch: 15 May)

Event Time Altitude Azimuth Distance (km) Brightness Sun altitude
Rises 20:11:05 0° 206° (SSW) 3,345 5.1 -17.3°
Reaches altitude 10° 20:13:30 10° 207° (SSW) 2,416 4.4 -17.6°
Maximum altitude 20:19:03 84° 296° (WNW) 835 2.2 -18.3°
Drops below altitude 10° 20:24:39 10° 25° (NNE) 2,439 4.9 -19.0°
Sets 20:27:06 0° 26° (NNE) 3,379 5.6 -19.3°
